This demonstration page uses our WeatherBlox Daily Observations layout. Learn more.

Left ArrowRight Arrow

Hourly Observations for June 25, 2018

Temp ( °F °C ) Dew Point ( °F °C ) Humidity (%) Winds ( mph kmh ) Pressure ( in mb ) Visibility ( mi km ) Precip ( " mm )
12:54 am 00:54 Clear 71 21.7 67 19.4 87 87 ESE 12 19 29.85 1011 10 16 0.00 0.00
1:54 am 01:54 Cloudy 72 22.2 67 19.4 84 84 ESE 8 13 29.89 1012 10 16 0.00 0.00
2:54 am 02:54 Cloudy 71 21.7 66 18.9 84 84 ESE 8 13 29.89 1012 10 16 0.00 0.00
3:54 am 03:54 Cloudy 70 21.1 66 18.9 87 87 E 7 11 29.88 1012 10 16 0.00 0.00
4:09 am 04:09 Cloudy 71 21.7 66 18.9 84 84 E 7 11 29.88 1012 10 16 0.00 0.00
4:54 am 04:54 Cloudy 71 21.7 66 18.9 84 84 E 8 13 29.90 1012 10 16 0.00 0.00
5:54 am 05:54 Cloudy 70 21.1 66 18.9 87 87 ESE 10 17 29.89 1012 10 16 0.00 0.00
6:54 am 06:54 Cloudy 69 20.6 65 18.3 87 87 E 9 15 29.88 1012 10 16 0.00 0.00
7:37 am 07:37 Cloudy 69 20.6 65 18.3 87 87 ESE 9 15 29.88 1012 10 16 0.00 0.00
7:54 am 07:54 Cloudy with Light Rain 69 20.6 65 18.3 87 87 ESE 8 13 29.90 1012 10 16 0.00 0.03
8:04 am 08:04 Cloudy with Light Rain 69 20.6 66 18.9 90 90 ESE 10 17 29.91 1013 6 10 0.00 0.03
8:12 am 08:12 Cloudy with Rain 68 20 66 18.9 93 93 ESE 9 15 29.91 1013 4 6 0.01 0.25
8:44 am 08:44 Cloudy with Rain 68 20 66 18.9 93 93 E 8 13 29.88 1012 2 3 0.08 2.03
8:51 am 08:51 Cloudy with Heavy Rain 68 20 66 19 94 94 E 9 15 29.88 1012 3 5 0.10 2.54
8:54 am 08:54 Cloudy with Rain 68 20 66 18.9 93 93 E 7 11 29.89 1012 3 5 0.10 2.54
9:04 am 09:04 Cloudy with Rain 68 20 66 18.9 93 93 E 7 11 29.88 1012 4 6 0.02 0.51
9:23 am 09:23 Cloudy with Rain 68 20 66 18.9 93 93 E 9 15 29.88 1012 3 5 0.06 1.52
9:26 am 09:26 Cloudy with Heavy Rain 68 20 66 18.9 93 93 E 12 19 29.88 1012 2 3 0.07 1.78
9:38 am 09:38 Cloudy with Light Rain 68 20 66 18.9 93 93 E 10 17 29.85 1011 3 5 0.10 2.54
9:49 am 09:49 Cloudy with Light Rain 68 20 66 19 94 94 ENE 9 15 29.85 1011 6 10 0.11 2.79
9:54 am 09:54 Cloudy with Light Rain 68 20 66 18.9 93 93 E 12 19 29.85 1011 5 8 0.11 2.79
10:54 am 10:54 Cloudy with Light Rain 69 20.6 66 18.9 90 90 E 6 9 29.83 1010 6 10 0.03 0.76
11:15 am 11:15 Cloudy with Heavy Rain 68 20 66 18.9 93 93 E 6 9 29.85 1011 3 4 0.06 1.52
11:26 am 11:26 Cloudy with Heavy Rain 68 20 67 19.4 96 96 ENE 7 11 29.83 1010 1 2 0.12 3.05
11:46 am 11:46 Cloudy with Heavy Rain 68 20 67 19.4 96 96 E 12 19 29.80 1009 2 3 0.22 5.59
11:54 am 11:54 Cloudy with Rain 69 20.6 67 19.4 93 93 E 9 15 29.81 1010 2 2 0.25 6.35
12:05 pm 12:05 Cloudy with Heavy Rain 69 20.6 67 19.4 93 93 E 12 19 29.80 1009 2 2 0.05 1.27
12:26 pm 12:26 Cloudy with Heavy Rain 68 20 67 19.4 96 96 SSE 8 13 29.80 1009 1 1 0.27 6.86
12:33 pm 12:33 Cloudy with Heavy Rain 69 20.6 67 19.4 93 93 S 7 11 29.80 1009 1 1 0.45 11.43
12:52 pm 12:52 Cloudy with Rain 70 21 66 19 88 88 S 7 11 29.80 1009 1 2 0.85 21.59
12:54 pm 12:54 Cloudy with Rain 69 20.6 68 20 96 96 S 8 13 29.80 1009 2 3 0.86 21.84
12:57 pm 12:57 Cloudy with Light Rain 69 20.6 68 20 96 96 S 8 13 29.80 1009 3 5 0.00 0.03
1:08 pm 13:08 Cloudy with Light Rain 69 20.6 67 19.4 93 93 W 10 17 29.80 1009 5 8 0.01 0.25
1:16 pm 13:16 Cloudy with Light Rain 67 19.4 65 18.3 93 93 WNW 16 26 29.80 1009 6 10 0.01 0.25
1:33 pm 13:33 Cloudy 69 20.6 65 18.3 87 87 WNW 13 20 29.80 1009 10 16 0.01 0.25
1:40 pm 13:40 Cloudy 69 20.6 66 18.9 90 90 WNW 15 24 29.80 1009 10 16 0.01 0.25
1:54 pm 13:54 Cloudy 70 21.1 65 18.3 84 84 WNW 16 26 29.79 1009 10 16 0.01 0.25
2:12 pm 14:12 Cloudy 72 22.2 65 18.3 79 79 WNW 12 19 29.77 1008 10 16 0.00 0.00
2:54 pm 14:54 Cloudy 74 23.3 66 18.9 76 76 SW 12 19 29.79 1009 10 16 0.00 0.00
3:54 pm 15:54 Sunny 77 25 64 17.8 64 64 WSW 15 24 29.78 1008 10 16 0.00 0.00
4:54 pm 16:54 Cloudy 77 25 65 18.3 66 66 WSW 7 11 29.77 1008 10 16 0.00 0.00
5:03 pm 17:03 Cloudy 77 25 64 17.8 64 64 SSW 7 11 29.74 1007 10 16 0.00 0.00
5:12 pm 17:12 Cloudy 77 25 63 17.2 62 62 SW 9 15 29.74 1007 10 16 0.00 0.00
5:54 pm 17:54 Mostly Cloudy 76 24.4 64 17.8 67 67 W 6 9 29.76 1008 10 16 0.00 0.00
6:11 pm 18:11 Cloudy with Heavy Rain 72 22.2 66 18.9 82 82 WNW 9 15 29.74 1007 1 1 0.06 1.52
6:16 pm 18:16 Cloudy with Strong Thunderstorms 69 20.6 64 17.8 84 84 Calm 29.77 1008 0 0 0.17 4.32
6:25 pm 18:25 Cloudy with Strong Thunderstorms 69 20.6 66 18.9 90 90 WSW 13 20 29.77 1008 1 1 0.55 13.97
6:32 pm 18:32 Cloudy with Strong Thunderstorms 68 20 65 18.3 90 90 W 15 24 29.80 1009 1 1 0.83 21.08
6:40 pm 18:40 Cloudy with Strong Thunderstorms 68 20 65 18.3 90 90 WSW 10 17 29.80 1009 2 3 0.92 23.37
6:42 pm 18:42 Cloudy with Strong Thunderstorms 68 20 65 18.3 90 90 SW 10 17 29.80 1009 3 4 0.92 23.37
6:49 pm 18:49 Cloudy with Thunderstorms 68 20 64 18 88 88 SSW 9 15 29.80 1009 4 6 0.95 24.13
6:54 pm 18:54 Cloudy with Strong Thunderstorms 68 20 65 18.3 90 90 SSW 8 13 29.80 1009 3 5 0.97 24.64
7:09 pm 19:09 Cloudy with Nearby Thunderstorms 68 20 65 18.3 90 90 Calm 29.80 1009 8 13 0.01 0.25
7:26 pm 19:26 Mostly Cloudy with Light Rain 68 20 66 18.9 93 93 W 8 13 29.80 1009 10 16 0.01 0.25
7:54 pm 19:54 Mostly Cloudy 68 20 65 18.3 90 90 Calm 29.80 1009 10 16 0.01 0.25
8:54 pm 20:54 Mostly Cloudy 67 19.4 64 17.8 91 91 S 8 13 29.80 1009 10 16 0.00 0.00
9:54 pm 21:54 Mostly Cloudy 67 19.4 65 18.3 93 93 SSW 8 13 29.81 1010 10 16 0.00 0.00
10:54 pm 22:54 Clear 66 18.9 64 17.8 93 93 SSW 8 13 29.81 1010 10 16 0.00 0.00
11:54 pm 23:54 Mostly Clear 66 18.9 63 17.2 90 90 SW 7 11 29.81 1009 10 16 0.00 0.00

Powered by AerisWeather